• în România
  • Lista ţărilor
  • Pe 7 zile
  • Temperatura apei
  • Hartă satelitară
  • Meteo pe hartă
  • Widget-uri
  • user-avatar
    Intrare

    Meteo pe oră la Novoantonovka

    Astăzi, 18 Octombrie, Joi

    Timp Temperatura Precipitaţii Vânt Presiune Umiditate
    00:00 +11°C° 0 mm 3 m/s 762 mmHg 81%
    01:00 +10°C° 0 mm 3 m/s 762 mmHg 81%
    02:00 +9°C° 0 mm 3 m/s 763 mmHg 81%
    03:00 +9°C° 0 mm 2 m/s 763 mmHg 81%
    04:00 +8°C° 0 mm 2 m/s 763 mmHg 81%
    05:00 +8°C° 0 mm 2 m/s 763 mmHg 81%
    06:00 +7°C° 0 mm 2 m/s 763 mmHg 81%
    07:00 +8°C° 0 mm 2 m/s 763 mmHg 75%
    08:00 +9°C° 0 mm 2 m/s 764 mmHg 69%
    09:00 +10°C° 0 mm 2 m/s 764 mmHg 64%
    10:00 +12°C° 0 mm 2 m/s 764 mmHg 58%
    11:00 +13°C° 0 mm 1 m/s 764 mmHg 52%
    12:00 +14°C° 0 mm 1 m/s 764 mmHg 47%
    13:00 +14°C° 0 mm 1 m/s 763 mmHg 45%
    14:00 +15°C° 0 mm 1 m/s 763 mmHg 43%
    15:00 +14°C° 0 mm 0 m/s 763 mmHg 41%
    16:00 +13°C° 0 mm 0 m/s 763 mmHg 44%
    17:00 +12°C° 0 mm 0 m/s 763 mmHg 47%
    18:00 +11°C° 0 mm 0 m/s 763 mmHg 51%
    19:00 +12°C° 0 mm 1 m/s 763 mmHg 52%
    20:00 +11°C° 0 mm 1 m/s 763 mmHg 53%
    21:00 +11°C° 0 mm 1 m/s 763 mmHg 54%
    22:00 +10°C° 0 mm 2 m/s 762 mmHg 55%
    23:00 +9°C° 0 mm 2 m/s 762 mmHg 56%

    Mâine, 19 Octombrie, Vineri

    Timp Temperatura Precipitaţii Vânt Presiune Umiditate
    00:00 +9°C° 0 mm 2 m/s 762 mmHg 58%
    01:00 +9°C° 0 mm 2 m/s 762 mmHg 59%
    02:00 +9°C° 0 mm 3 m/s 762 mmHg 60%
    03:00 +8°C° 0 mm 3 m/s 762 mmHg 62%
    04:00 +8°C° 0 mm 3 m/s 762 mmHg 63%
    05:00 +8°C° 0 mm 3 m/s 762 mmHg 64%
    06:00 +8°C° 0 mm 3 m/s 761 mmHg 65%
    07:00 +9°C° 0 mm 3 m/s 761 mmHg 62%
    08:00 +11°C° 0 mm 3 m/s 761 mmHg 58%
    09:00 +12°C° 0 mm 4 m/s 761 mmHg 54%
    10:00 +13°C° 0 mm 4 m/s 761 mmHg 50%
    11:00 +15°C° 0 mm 4 m/s 761 mmHg 47%
    12:00 +17°C° 0 mm 4 m/s 761 mmHg 43%
    13:00 +18°C° 0 mm 4 m/s 760 mmHg 42%
    14:00 +18°C° 0 mm 4 m/s 760 mmHg 42%
    15:00 +17°C° 0 mm 5 m/s 760 mmHg 41%
    16:00 +17°C° 0 mm 4 m/s 759 mmHg 44%
    17:00 +14°C° 0 mm 4 m/s 759 mmHg 47%
    18:00 +13°C° 0 mm 3 m/s 759 mmHg 50%
    19:00 +12°C° 0 mm 3 m/s 759 mmHg 50%
    20:00 +12°C° 0 mm 4 m/s 759 mmHg 50%
    21:00 +11°C° 0 mm 4 m/s 759 mmHg 50%
    22:00 +11°C° 0 mm 4 m/s 758 mmHg 50%
    23:00 +11°C° 0 mm 4 m/s 758 mmHg 50%

    Poimâine, 20 Octombrie, Sâmbătă

    Timp Temperatura Precipitaţii Vânt Presiune Umiditate
    00:00 +10°C° 0 mm 4 m/s 758 mmHg 50%
    01:00 +10°C° 0 mm 4 m/s 758 mmHg 51%
    02:00 +10°C° 0 mm 3 m/s 758 mmHg 51%
    03:00 +9°C° 0 mm 3 m/s 757 mmHg 52%
    04:00 +9°C° 0 mm 3 m/s 757 mmHg 55%
    05:00 +9°C° 0 mm 3 m/s 757 mmHg 57%
    06:00 +8°C° 0 mm 3 m/s 757 mmHg 60%
    07:00 +10°C° 0 mm 4 m/s 757 mmHg 59%
    08:00 +11°C° 0 mm 4 m/s 756 mmHg 58%
    09:00 +12°C° 0 mm 4 m/s 756 mmHg 57%
    10:00 +14°C° 0 mm 4 m/s 756 mmHg 55%
    11:00 +15°C° 0 mm 4 m/s 756 mmHg 54%
    12:00 +17°C° 0 mm 4 m/s 756 mmHg 52%
    13:00 +18°C° 0 mm 4 m/s 756 mmHg 52%
    14:00 +18°C° 0 mm 4 m/s 756 mmHg 51%
    15:00 +18°C° 0 mm 4 m/s 755 mmHg 51%
    16:00 +17°C° 0 mm 3 m/s 756 mmHg 57%
    17:00 +14°C° 0 mm 3 m/s 756 mmHg 63%
    18:00 +14°C° 0 mm 2 m/s 756 mmHg 69%
    19:00 +12°C° 0 mm 3 m/s 756 mmHg 73%
    20:00 +12°C° 0 mm 3 m/s 757 mmHg 76%
    21:00 +11°C° 0 mm 3 m/s 757 mmHg 80%
    22:00 +11°C° 0 mm 3 m/s 757 mmHg 80%
    23:00 +10°C° 0 mm 3 m/s 757 mmHg 80%

    21 Octombrie, Duminică

    Timp Temperatura Precipitaţii Vânt Presiune Umiditate
    00:00 +9°C° 0 mm 3 m/s 757 mmHg 81%
    01:00 +8°C° 0 mm 3 m/s 758 mmHg 80%
    02:00 +8°C° 0 mm 3 m/s 758 mmHg 79%
    03:00 +7°C° 0 mm 3 m/s 758 mmHg 79%
    04:00 +7°C° 0 mm 3 m/s 758 mmHg 80%
    05:00 +5°C° 0 mm 3 m/s 758 mmHg 81%
    06:00 +5°C° 0 mm 3 m/s 759 mmHg 82%
    07:00 +7°C° 0 mm 3 m/s 759 mmHg 77%
    08:00 +8°C° 0 mm 3 m/s 759 mmHg 72%
    09:00 +9°C° 0 mm 3 m/s 760 mmHg 67%
    10:00 +10°C° 0 mm 3 m/s 760 mmHg 61%
    11:00 +11°C° 0 mm 3 m/s 760 mmHg 54%
    12:00 +12°C° 0 mm 3 m/s 760 mmHg 48%
    13:00 +13°C° 0 mm 3 m/s 760 mmHg 47%
    14:00 +13°C° 0 mm 3 m/s 760 mmHg 47%
    15:00 +13°C° 0 mm 3 m/s 760 mmHg 46%
    16:00 +11°C° 0 mm 3 m/s 760 mmHg 50%
    17:00 +10°C° 0 mm 3 m/s 760 mmHg 55%
    18:00 +9°C° 0 mm 3 m/s 761 mmHg 60%
    19:00 +8°C° 0 mm 3 m/s 761 mmHg 62%
    20:00 +8°C° 0 mm 3 m/s 761 mmHg 65%
    21:00 +7°C° 0 mm 3 m/s 762 mmHg 68%
    22:00 +7°C° 0 mm 3 m/s 762 mmHg 70%
    23:00 +7°C° 0 mm 3 m/s 762 mmHg 71%

    22 Octombrie, Luni

    Timp Temperatura Precipitaţii Vânt Presiune Umiditate
    00:00 +5°C° 0 mm 3 m/s 762 mmHg 73%
    01:00 +5°C° 0 mm 3 m/s 762 mmHg 74%
    02:00 +5°C° 0 mm 3 m/s 762 mmHg 74%
    03:00 +4°C° 0 mm 3 m/s 763 mmHg 75%
    04:00 +4°C° 0 mm 3 m/s 763 mmHg 75%
    05:00 +4°C° 0 mm 3 m/s 763 mmHg 76%
    06:00 +3°C° 0 mm 3 m/s 763 mmHg 77%
    07:00 +4°C° 0 mm 3 m/s 763 mmHg 73%
    08:00 +5°C° 0 mm 3 m/s 763 mmHg 69%
    09:00 +7°C° 0 mm 3 m/s 763 mmHg 65%
    10:00 +8°C° 0 mm 3 m/s 763 mmHg 59%
    11:00 +10°C° 0 mm 3 m/s 763 mmHg 54%
    12:00 +11°C° 0 mm 3 m/s 763 mmHg 49%
    13:00 +11°C° 0 mm 3 m/s 763 mmHg 47%
    14:00 +11°C° 0 mm 3 m/s 763 mmHg 46%
    15:00 +13°C° 0 mm 2 m/s 762 mmHg 44%
    16:00 +10°C° 0 mm 2 m/s 762 mmHg 48%
    17:00 +9°C° 0 mm 2 m/s 762 mmHg 52%
    18:00 +8°C° 0 mm 2 m/s 762 mmHg 56%
    19:00 +7°C° 0 mm 2 m/s 762 mmHg 58%
    20:00 +7°C° 0 mm 2 m/s 762 mmHg 59%
    21:00 +7°C° 0 mm 2 m/s 762 mmHg 61%
    22:00 +6°C° 0 mm 2 m/s 762 mmHg 62%
    23:00 +6°C° 0 mm 2 m/s 762 mmHg 63%

    23 Octombrie, Marţi

    Timp Temperatura Precipitaţii Vânt Presiune Umiditate
    00:00 +5°C° 0 mm 2 m/s 762 mmHg 64%
    01:00 +5°C° 0 mm 2 m/s 762 mmHg 66%
    02:00 +5°C° 0 mm 2 m/s 761 mmHg 67%
    03:00 +5°C° 0 mm 2 m/s 761 mmHg 68%
    04:00 +5°C° 0 mm 2 m/s 761 mmHg 69%
    05:00 +4°C° 0 mm 2 m/s 761 mmHg 70%
    06:00 +4°C° 0 mm 2 m/s 761 mmHg 70%
    07:00 +4°C° 0 mm 3 m/s 760 mmHg 66%
    08:00 +7°C° 0 mm 3 m/s 760 mmHg 61%
    09:00 +8°C° 0 mm 3 m/s 760 mmHg 56%
    10:00 +9°C° 0 mm 3 m/s 760 mmHg 53%
    11:00 +10°C° 0 mm 4 m/s 760 mmHg 49%
    12:00 +11°C° 0 mm 4 m/s 759 mmHg 46%
    13:00 +10°C° 0.1 mm 4 m/s 759 mmHg 50%
    14:00 +10°C° 0.1 mm 3 m/s 758 mmHg 54%
    15:00 +10°C° 0.1 mm 3 m/s 758 mmHg 58%
    16:00 +9°C° 0 mm 3 m/s 758 mmHg 58%
    17:00 +9°C° 0 mm 3 m/s 758 mmHg 59%
    18:00 +8°C° 0 mm 3 m/s 757 mmHg 59%
    19:00 +8°C° 0 mm 3 m/s 757 mmHg 60%
    20:00 +7°C° 0 mm 4 m/s 757 mmHg 60%
    21:00 +7°C° 0 mm 4 m/s 756 mmHg 61%
    22:00 +7°C° 0 mm 4 m/s 756 mmHg 62%
    23:00 +7°C° 0 mm 4 m/s 756 mmHg 63%
    Arată mai mult